Terminal Aerodrome Forecast
Issued by NWS

Home | Current Version | Previous Version | Text Only | Print | Product List | Glossary On
Versions: 1 2 3 4 5 6 7 8 9 10 11 12 13 14
477
FTUS42 KTAE 272320
TAFECP
TAF
KECP 272320Z 2800/2824 03015G25KT 3SM +RA OVC007
     FM280300 02015G25KT 5SM RA OVC012
     FM280700 10020G30KT 1SM +RA VCTS BKN005 OVC010CB
      TEMPO 2814/2818 20030G40KT 1/2SM +TSRA
     FM281900 20020G30KT 6SM -RA OVC015=

USA.gov is the U.S. government's official web portal to all federal, state and local government web resources and services.